Back to catalog

STARLINK-33793

AliveCommunicationsSSO
NORAD 64165·PAYLOAD·🇺🇸 United States

Launched May 27, 2025 from Vandenberg Space Force Base

Loading…

Next Passes (next 24 hours)

TLE

FreshSource: CelesTrak SupGP

Epoch: Sep 14, 2026, 21:26 UTC

1 64165C 25112V   26257.89354167  .00005532  00000+0  17175-3 0  2573
2 64165  97.2834 305.0798 0001053  99.4165 170.8531 15.33430692    14

Track STARLINK-33793 in real time with AllMySat

Download on the App Store